Regional Weather Roundup
Issued by NWS

Home | Current Version | Previous Version | Graphics & Text | Print | Product List | Glossary On
Versions: 1 2 3 4 5 6 7 8 9 10 11 12 13 14 15 16 17 18 19 20 21 22 23 24 25 26 27 28 29 30 31 32 33 34 35 36 37 38 39 40 41 42 43 44 45 46 47 48 49 50
000
ASUS43 KLOT 261112
RWRIL

ILLINOIS REGIONAL WEATHER ROUNDUP
NATIONAL WEATHER SERVICE CHICAGO/ROMEOVILLE IL
500 AM CST SUN FEB 26 2017

NOTE: "FAIR" INDICATES FEW OR NO CLOUDS BELOW 12,000 FEET WITH NO
SIGNIFICANT WEATHER AND/OR OBSTRUCTIONS TO VISIBILITY.

* THESE STATIONS ARE NOT UNDER NWS QUALITY CONTROL. THEY ALSO MAY NOT
  REPORT WEATHER SUCH AS PRECIPITATION OR FOG.

ILZ001-002-007-009-015-016-024-261200-
NORTHWEST ILLINOIS

CITY           SKY/WX    TMP DP  RH WIND       PRES   REMARKS
MOLINE         CLOUDY    31  16  54 S12       29.96F WCI  22
STERLING*      CLOUDY    28  19  69 S7        29.99F WCI  21
$$

ILZ003-004-008-010-011-017-018-261200-
NORTH CENTRAL ILLINOIS

CITY           SKY/WX    TMP DP  RH WIND       PRES   REMARKS
ROCKFORD       CLOUDY    26  20  77 S12       29.99S WCI  16
FREEPORT*      CLOUDY    26  20  76 S14       29.96F WCI  15
ROCHELLE*      CLOUDY    26  21  82 S9        30.00S WCI  16
DE KALB*       CLOUDY    24  21  87 S12       30.00S WCI  13
PERU*          CLOUDY    26  18  73 S10       30.02F WCI  15
$$

ILZ005-006-012>014-019>023-261200-
NORTHEAST ILLINOIS

CITY           SKY/WX    TMP DP  RH WIND       PRES   REMARKS
CHICAGO-OHARE  CLOUDY    25  18  74 S8        30.01S WCI  16
CHICAGO-MIDWAY CLOUDY    26  17  68 S9        30.03S WCI  17
AURORA         CLOUDY    24  20  84 S9        30.02S WCI  14
LANSING*       PTCLDY    22  20  93 S6        30.05F WCI  14
JOLIET*        PTCLDY    24  20  85 S3        30.05S
WAUKEGAN       CLOUDY    24  18  77 S9        29.98F WCI  14
DUPAGE AIRPORT CLOUDY    22  17  81 S9        30.01R WCI  12
KANKAKEE*      PTCLDY    22  17  82 CALM      30.07S
WHEELING       CLOUDY    24  18  77 S9        30.02S WCI  14
MORRIS*        PTCLDY    22  19  86 CALM      30.04R
ROMEOVILLE*    PTCLDY    22  21  96 S8        30.04S WCI  12
NORTHERLY ISL    N/A     25  18  74 S5          N/A  WCI  19
$$

LMZ740>746-261200-
SOUTHERN LAKE MICHIGAN

STATION/POSITION SKY/WX   TEMP    WIND        PRES    VSBY  WAVE
                          AIR SEA DIR/SP/G                  HT/PER
                          (F)     (DEG/KT/KT) (MB)    (MI)  (FT/S)
HARRISON CRIB              28     190/ 14/ 15   N/A
BURNHAM HARBOR             25     180/  7       N/A
CALUMET HARBOR             24     170/  7/ 10 1016.8F
BURNS HARBOR               24     180/ 10/ 12 1018.6S
MICHIGAN CITY              23     150/  9/ 11   N/A
$$

ILZ025>027-034>036-040-047-049-050-058-095>099-261200-
WEST-CENTRAL ILLINOIS

CITY           SKY/WX    TMP DP  RH WIND       PRES   REMARKS
QUINCY         PTCLDY    30  14  51 S12       30.02S WCI  20
GALESBURG*     CLOUDY    28  19  71 S12G17    30.00S WCI  17
MACOMB*        CLOUDY    29  18  63 S14       30.04S WCI  18
JACKSONVILLE*  PTCLDY    28  15  57 S10       30.06F WCI  19
PITTSFIELD*    CLEAR     27  17  65 S7        30.06S WCI  20
$$

ILZ028>032-037-038-041>044-048-051>054-059>061-261200-
CENTRAL ILLINOIS

CITY           SKY/WX    TMP DP  RH WIND       PRES   REMARKS
PONTIAC        MOCLDY    24  20  83 S7        30.07R WCI  16
BLOOMINGTON    CLOUDY    23  17  78 S12       30.06S WCI  12
DECATUR        PTCLDY    23  13  65 S10       30.10R WCI  12
PEORIA         CLOUDY    26  16  65 S9        30.05R WCI  17
LACON*         CLOUDY    25  17  70 S6        30.03S WCI  18
LINCOLN*       MOCLDY    23  16  74 S12       30.08S WCI  12
SPRINGFIELD    PTCLDY    27  15  61 S13       30.08S WCI  16
TAYLORVILLE    CLEAR     23  14  69 S9        30.10S WCI  13
$$

ILZ033-039-045-046-055>057-062-063-261200-
EAST-CENTRAL ILLINOIS

CITY           SKY/WX    TMP DP  RH WIND       PRES   REMARKS
CHAMPAIGN      CLEAR     17  11  77 SE6       30.09S WCI   9
RANTOUL*       CLEAR     21  17  86 SE5       30.09S WCI  14
MATTOON        CLEAR     24  17  74 S8        30.11S WCI  15
PARIS*         PTCLDY    20  16  83 S7        30.14R WCI  11
$$

ILZ079-100>102-261200-
SOUTHWEST ILLINOIS

CITY           SKY/WX    TMP DP  RH WIND       PRES   REMARKS
ALTON          CLEAR     24  15  66 SE3       30.11S
BELLEVILLE     CLEAR     22  20  93 SE5       30.11F WCI  16
CAHOKIA*       PTCLDY    21  14  74 CALM      30.11F
SPARTA*        CLEAR     27  14  56 SE6       30.14F WCI  21
$$

ILZ064>066-069>071-074>076-080>082-084>086-088>090-092>094-261200-
SOUTH-CENTRAL ILLINOIS

CITY           SKY/WX    TMP DP  RH WIND       PRES   REMARKS
CARBONDALE     CLEAR     23  19  85 SE5       30.15F WCI  17
CAIRO*         CLEAR     23  21  91 CALM      30.18S
EFFINGHAM*     CLEAR     21  19  89 CALM      30.16S
MARION         CLEAR     25  19  80 CALM      30.18R
MT. VERNON     CLEAR     18  16  92 CALM      30.16S
CENTRALIA*     PTCLDY    24  19  83 SE3       30.13S
SALEM*         CLEAR     26  17  66 SE6       30.15R WCI  20
METROPOLIS*    CLEAR     21  19  93 CALM      30.20R
$$

ILZ067-068-072-073-078-083-087-091-261200-
SOUTHEAST ILLINOIS

CITY           SKY/WX    TMP DP  RH WIND       PRES   REMARKS
LAWRENCEVILLE  PTCLDY    21  18  88 S7        30.18R WCI  12
FLORA*         CLEAR     20  17  88 CALM      30.17R
FAIRFIELD*     CLEAR     23  19  87 CALM      30.17R
HARRISBURG*    CLEAR     24  22  92 CALM      30.19S
ROBINSON*      PTCLDY    19  16  90 CALM      30.18R
CARMI*         CLEAR     22  19  88 CALM      30.19R
$$

ABBREVIATIONS USED IN REMARKS
   TC - TEMPERATURE IN CELSIUS
  WCI - WIND CHILL INDEX
   HX - HEAT INDEX
  VSB - VISIBILITY
$$




USA.gov is the U.S. government's official web portal to all federal, state and local government web resources and services.